Time,TemperatureF,DewpointF,PressureIn,WindDirection,WindDirectionDegrees,WindSpeedMPH,WindSpeedGustMPH,Humidity,HourlyPrecipIn,Conditions,Clouds,dailyrainin,SoftwareType,DateUTC
2013-10-02 00:00:00,67.5,62.1,30.12,WSW,248,0.0,0.0,83,0.00,,BKN250,0.00,VWS V14.01,2013-10-02 04:00:00,
2013-10-02 00:01:00,67.5,62.1,30.12,WSW,248,0.0,0.0,83,0.00,,CLR,0.00,VWS V14.01,2013-10-02 04:01:00,
2013-10-02 00:02:00,67.5,62.1,30.12,WSW,248,0.0,0.0,83,0.00,,CLR,0.00,VWS V14.01,2013-10-02 04:02:00,
2013-10-02 00:07:00,67.3,62.0,30.12,WSW,248,0.0,0.0,83,0.00,,CLR,0.00,VWS V14.01,2013-10-02 04:07:00,
2013-10-02 00:12:00,67.3,62.3,30.12,WSW,248,0.0,0.0,84,0.00,,CLR,0.00,VWS V14.01,2013-10-02 04:12:00,
2013-10-02 00:17:00,67.3,62.3,30.12,WSW,248,0.0,0.0,84,0.00,,CLR,0.00,VWS V14.01,2013-10-02 04:17:00,
2013-10-02 00:35:00,67.1,62.8,30.12,WSW,248,0.0,0.0,86,0.00,,CLR,0.00,VWS V14.01,2013-10-02 04:35:00,
2013-10-02 00:40:00,66.9,62.3,30.12,WSW,248,0.0,0.0,85,0.00,,CLR,0.00,VWS V14.01,2013-10-02 04:40:00,
2013-10-02 00:45:00,66.9,62.6,30.12,WSW,248,0.0,0.0,86,0.00,,CLR,0.00,VWS V14.01,2013-10-02 04:45:00,
2013-10-02 00:50:00,66.9,62.9,30.12,WSW,248,0.0,0.0,87,0.00,,CLR,0.00,VWS V14.01,2013-10-02 04:50:00,
2013-10-02 00:55:00,66.7,62.8,30.12,WSW,248,0.0,0.0,87,0.00,,CLR,0.00,VWS V14.01,2013-10-02 04:55:00,
2013-10-02 01:00:00,66.7,62.8,30.12,WSW,248,0.0,0.0,87,0.00,,CLR,0.00,VWS V14.01,2013-10-02 05:00:00,
2013-10-02 01:05:00,66.7,62.8,30.12,WSW,248,0.0,0.0,87,0.00,,CLR,0.00,VWS V14.01,2013-10-02 05:05:00,
2013-10-02 01:10:00,66.7,63.1,30.12,WSW,248,0.0,0.0,88,0.00,,CLR,0.00,VWS V14.01,2013-10-02 05:10:00,
2013-10-02 01:15:00,66.6,62.9,30.12,WSW,248,0.0,0.0,88,0.00,,CLR,0.00,VWS V14.01,2013-10-02 05:15:00,
2013-10-02 01:20:00,66.6,62.9,30.12,WSW,248,0.0,0.0,88,0.00,,CLR,0.00,VWS V14.01,2013-10-02 05:20:00,
2013-10-02 01:25:00,66.6,62.9,30.12,SW,225,0.0,0.0,88,0.00,,CLR,0.00,VWS V14.01,2013-10-02 05:25:00,
2013-10-02 01:30:00,66.6,62.9,30.12,SW,225,0.0,0.0,88,0.00,,CLR,0.00,VWS V14.01,2013-10-02 05:30:00,
2013-10-02 01:35:00,66.4,63.0,30.12,SW,225,0.0,0.0,89,0.00,,CLR,0.00,VWS V14.01,2013-10-02 05:35:00,
2013-10-02 01:40:00,66.4,63.0,30.12,SW,225,0.0,0.0,89,0.00,,CLR,0.00,VWS V14.01,2013-10-02 05:40:00,
2013-10-02 01:45:00,66.4,63.0,30.12,SW,225,0.0,0.0,89,0.00,,CLR,0.00,VWS V14.01,2013-10-02 05:45:00,
2013-10-02 01:50:00,66.4,63.4,30.12,SW,225,0.0,0.0,90,0.00,,CLR,0.00,VWS V14.01,2013-10-02 05:50:00,
2013-10-02 01:55:00,66.4,63.4,30.12,SW,225,0.0,0.0,90,0.00,,CLR,0.00,VWS V14.01,2013-10-02 05:55:00,
2013-10-02 02:00:00,66.4,63.4,30.12,SW,225,0.0,0.0,90,0.00,,CLR,0.00,VWS V14.01,2013-10-02 06:00:00,
2013-10-02 02:05:00,66.4,63.4,30.12,SW,225,0.0,0.0,90,0.00,,CLR,0.00,VWS V14.01,2013-10-02 06:05:00,
2013-10-02 02:10:00,66.4,63.4,30.15,SW,225,0.0,0.0,90,0.00,,CLR,0.00,VWS V14.01,2013-10-02 06:10:00,
2013-10-02 02:15:00,66.2,63.5,30.15,SW,225,0.0,0.0,91,0.00,,,0.00,VWS V14.01,2013-10-02 06:15:00,
2013-10-02 02:20:00,66.2,63.5,30.15,SW,225,0.0,0.0,91,0.00,,,0.00,VWS V14.01,2013-10-02 06:20:00,
2013-10-02 02:25:00,66.2,63.5,30.15,SW,225,0.0,0.0,91,0.00,,,0.00,VWS V14.01,2013-10-02 06:25:00,
2013-10-02 02:30:00,66.2,63.5,30.15,SW,225,0.0,0.0,91,0.00,,,0.00,VWS V14.01,2013-10-02 06:30:00,
2013-10-02 02:35:00,66.2,63.5,30.15,SW,225,0.0,0.0,91,0.00,,,0.00,VWS V14.01,2013-10-02 06:35:00,
2013-10-02 02:40:00,66.0,63.6,30.15,SW,225,0.0,0.0,92,0.00,,,0.00,VWS V14.01,2013-10-02 06:40:00,
2013-10-02 02:45:00,66.0,63.6,30.15,SW,225,0.0,0.0,92,0.00,,,0.00,VWS V14.01,2013-10-02 06:45:00,
2013-10-02 02:50:00,66.0,63.6,30.15,SW,225,0.0,0.0,92,0.00,,,0.00,VWS V14.01,2013-10-02 06:50:00,
2013-10-02 02:55:00,66.0,63.6,30.15,SW,225,0.0,0.0,92,0.00,,,0.00,VWS V14.01,2013-10-02 06:55:00,
2013-10-02 03:00:00,65.8,63.5,30.15,SW,225,0.0,0.0,92,0.00,,,0.00,VWS V14.01,2013-10-02 07:00:00,
2013-10-02 03:05:00,65.8,63.5,30.15,SW,225,0.0,0.0,92,0.00,,,0.00,VWS V14.01,2013-10-02 07:05:00,
2013-10-02 03:10:00,65.8,63.5,30.15,SW,225,0.0,0.0,92,0.00,,,0.00,VWS V14.01,2013-10-02 07:10:00,
2013-10-02 03:15:00,65.8,63.8,30.15,SW,225,0.0,0.0,93,0.00,,,0.00,VWS V14.01,2013-10-02 07:15:00,
2013-10-02 03:20:00,65.8,63.8,30.15,SW,225,0.0,0.0,93,0.00,,,0.00,VWS V14.01,2013-10-02 07:20:00,
2013-10-02 03:25:00,65.8,63.8,30.15,SW,225,0.0,0.0,93,0.00,,,0.00,VWS V14.01,2013-10-02 07:25:00,
2013-10-02 03:30:00,65.7,63.6,30.15,SW,225,0.0,0.0,93,0.00,,,0.00,VWS V14.01,2013-10-02 07:30:00,
2013-10-02 03:35:00,65.7,63.6,30.15,SW,225,0.0,0.0,93,0.00,,,0.00,VWS V14.01,2013-10-02 07:35:00,
2013-10-02 03:40:00,65.7,63.6,30.15,SW,225,0.0,0.0,93,0.00,,,0.00,VWS V14.01,2013-10-02 07:40:00,
2013-10-02 03:45:00,65.7,63.6,30.15,SW,225,0.0,0.0,93,0.00,,,0.00,VWS V14.01,2013-10-02 07:45:00,
2013-10-02 03:50:00,65.7,63.6,30.15,SW,225,0.0,0.0,93,0.00,,,0.00,VWS V14.01,2013-10-02 07:50:00,
2013-10-02 03:55:00,65.7,63.6,30.15,SW,225,0.0,0.0,93,0.00,,,0.00,VWS V14.01,2013-10-02 07:55:00,
2013-10-02 04:00:00,65.5,63.7,30.15,SW,225,0.0,0.0,94,0.00,,,0.00,VWS V14.01,2013-10-02 08:00:00,
2013-10-02 04:05:00,65.5,63.7,30.15,SW,225,0.0,0.0,94,0.00,,,0.00,VWS V14.01,2013-10-02 08:05:00,
2013-10-02 04:10:00,65.5,63.7,30.15,SW,225,0.0,0.0,94,0.00,,,0.00,VWS V14.01,2013-10-02 08:10:00,
2013-10-02 04:15:00,65.5,63.7,30.15,SW,225,0.0,0.0,94,0.00,,,0.00,VWS V14.01,2013-10-02 08:15:00,
2013-10-02 04:20:00,65.3,63.5,30.15,SW,225,0.0,0.0,94,0.00,,,0.00,VWS V14.01,2013-10-02 08:20:00,
2013-10-02 04:25:00,65.3,63.5,30.15,SW,225,0.0,0.0,94,0.00,,,0.00,VWS V14.01,2013-10-02 08:25:00,
2013-10-02 04:30:00,65.3,63.5,30.15,SW,225,0.0,0.0,94,0.00,,,0.00,VWS V14.01,2013-10-02 08:30:00,
2013-10-02 04:35:00,65.3,63.5,30.15,SW,225,0.0,0.0,94,0.00,,,0.00,VWS V14.01,2013-10-02 08:35:00,
2013-10-02 04:40:00,65.3,63.8,30.15,SW,225,0.0,0.0,95,0.00,,,0.00,VWS V14.01,2013-10-02 08:40:00,
2013-10-02 04:45:00,65.3,63.8,30.15,SW,225,0.0,0.0,95,0.00,,,0.00,VWS V14.01,2013-10-02 08:45:00,
2013-10-02 04:50:00,65.3,63.8,30.15,SW,225,0.0,0.0,95,0.00,,,0.00,VWS V14.01,2013-10-02 08:50:00,
2013-10-02 04:55:00,65.3,64.1,30.15,SW,225,0.0,0.0,96,0.00,,,0.00,VWS V14.01,2013-10-02 08:55:00,
2013-10-02 05:00:00,65.5,64.3,30.15,SW,225,0.0,0.0,96,0.00,,,0.00,VWS V14.01,2013-10-02 09:00:00,
2013-10-02 05:05:00,65.5,64.3,30.15,SW,225,0.0,0.0,96,0.00,,,0.00,VWS V14.01,2013-10-02 09:05:00,
2013-10-02 05:10:00,65.5,64.3,30.15,SW,225,0.0,0.0,96,0.00,,,0.00,VWS V14.01,2013-10-02 09:10:00,
2013-10-02 05:15:00,65.5,64.3,30.15,SW,225,0.0,0.0,96,0.00,,,0.00,VWS V14.01,2013-10-02 09:15:00,
2013-10-02 05:20:00,65.5,64.3,30.15,SW,225,0.0,0.0,96,0.00,,,0.00,VWS V14.01,2013-10-02 09:20:00,
2013-10-02 05:25:00,65.7,64.8,30.15,SW,225,0.0,0.0,97,0.00,,,0.00,VWS V14.01,2013-10-02 09:25:00,
2013-10-02 05:30:00,65.8,65.0,30.15,SW,225,0.0,0.0,97,0.00,,,0.00,VWS V14.01,2013-10-02 09:30:00,
2013-10-02 05:34:00,65.8,65.0,30.15,SW,225,0.0,0.0,97,0.00,,,0.00,VWS V14.01,2013-10-02 09:34:00,
2013-10-02 05:39:00,66.0,65.2,30.15,SW,225,0.0,0.0,97,0.00,,,0.00,VWS V14.01,2013-10-02 09:39:00,
2013-10-02 05:44:00,66.0,65.2,30.15,SW,225,0.0,0.0,97,0.00,,,0.00,VWS V14.01,2013-10-02 09:44:00,
2013-10-02 05:49:00,66.2,65.3,30.15,SW,225,0.0,0.0,97,0.00,,,0.00,VWS V14.01,2013-10-02 09:49:00,
2013-10-02 05:54:00,66.2,65.3,30.15,SW,225,0.0,0.0,97,0.00,,,0.00,VWS V14.01,2013-10-02 09:54:00,
2013-10-02 05:59:00,66.2,65.3,30.15,SW,225,0.0,0.0,97,0.00,,,0.00,VWS V14.01,2013-10-02 09:59:00,
2013-10-02 06:00:00,66.2,65.3,30.15,SW,225,0.0,0.0,97,0.00,,BKN250,0.00,VWS V14.01,2013-10-02 10:00:00,
2013-10-02 06:04:00,66.4,65.5,30.15,SW,225,0.0,0.0,97,0.00,,OVC075,0.00,VWS V14.01,2013-10-02 10:04:00,
2013-10-02 06:09:00,66.4,65.5,30.15,SW,225,0.0,0.0,97,0.00,,OVC075,0.00,VWS V14.01,2013-10-02 10:09:00,
2013-10-02 06:14:00,66.4,65.5,30.15,SW,225,0.0,0.0,97,0.00,,OVC075,0.00,VWS V14.01,2013-10-02 10:14:00,
2013-10-02 06:19:00,66.4,65.5,30.15,SW,225,0.0,0.0,97,0.00,,OVC075,0.00,VWS V14.01,2013-10-02 10:19:00,
2013-10-02 06:24:00,66.4,65.5,30.12,SW,225,0.0,0.0,97,0.00,,OVC075,0.00,VWS V14.01,2013-10-02 10:24:00,
2013-10-02 06:29:00,66.6,65.7,30.12,SW,225,0.0,0.0,97,0.00,,OVC075,0.00,VWS V14.01,2013-10-02 10:29:00,
2013-10-02 06:34:00,66.6,65.7,30.12,SW,225,0.0,0.0,97,0.00,,OVC075,0.00,VWS V14.01,2013-10-02 10:34:00,
2013-10-02 06:39:00,66.6,65.7,30.15,SW,225,0.0,0.0,97,0.00,,OVC075,0.00,VWS V14.01,2013-10-02 10:39:00,
2013-10-02 06:44:00,66.7,65.9,30.15,SW,225,0.0,0.0,97,0.00,,OVC075,0.00,VWS V14.01,2013-10-02 10:44:00,
2013-10-02 06:49:00,66.7,65.9,30.15,SW,225,0.0,0.0,97,0.00,,OVC075,0.00,VWS V14.01,2013-10-02 10:49:00,
2013-10-02 06:54:00,66.7,65.9,30.15,SW,225,0.0,0.0,97,0.00,,OVC075,0.00,VWS V14.01,2013-10-02 10:54:00,
2013-10-02 06:59:00,66.7,65.9,30.15,SW,225,0.0,0.0,97,0.00,,OVC075,0.00,VWS V14.01,2013-10-02 10:59:00,
2013-10-02 07:00:00,66.7,65.9,30.15,SW,225,0.0,0.0,97,0.00,,BKN250,0.00,VWS V14.01,2013-10-02 11:00:00,
2013-10-02 07:04:00,66.9,66.0,30.15,SW,225,0.0,0.0,97,0.00,,OVC080,0.00,VWS V14.01,2013-10-02 11:04:00,
2013-10-02 07:09:00,66.9,66.0,30.15,SW,225,0.0,0.0,97,0.00,,OVC080,0.00,VWS V14.01,2013-10-02 11:09:00,
2013-10-02 07:14:00,66.9,66.0,30.15,SW,225,0.0,0.0,97,0.00,,OVC080,0.00,VWS V14.01,2013-10-02 11:14:00,
2013-10-02 07:19:00,67.1,66.2,30.15,SW,225,0.0,0.0,97,0.00,,OVC080,0.00,VWS V14.01,2013-10-02 11:19:00,
2013-10-02 07:24:00,67.1,66.2,30.15,SW,225,0.0,0.0,97,0.00,,OVC080,0.00,VWS V14.01,2013-10-02 11:24:00,
2013-10-02 07:29:00,67.1,66.2,30.15,SW,225,0.0,0.0,97,0.00,,OVC080,0.00,VWS V14.01,2013-10-02 11:29:00,
2013-10-02 07:34:00,67.1,66.2,30.15,SW,225,0.0,0.0,97,0.00,,OVC080,0.00,VWS V14.01,2013-10-02 11:34:00,
2013-10-02 07:39:00,67.1,66.2,30.15,SW,225,0.0,0.0,97,0.00,,OVC080,0.00,VWS V14.01,2013-10-02 11:39:00,
2013-10-02 07:44:00,67.1,66.2,30.15,SW,225,0.0,0.0,97,0.00,,OVC080,0.00,VWS V14.01,2013-10-02 11:44:00,
2013-10-02 07:49:00,67.3,66.4,30.15,SW,225,0.0,0.0,97,0.00,,OVC080,0.00,VWS V14.01,2013-10-02 11:49:00,
2013-10-02 07:54:00,67.3,66.4,30.15,SW,225,0.0,0.0,97,0.00,,OVC080,0.00,VWS V14.01,2013-10-02 11:54:00,
2013-10-02 07:59:00,67.3,66.4,30.15,SW,225,0.0,0.0,97,0.00,,OVC080,0.00,VWS V14.01,2013-10-02 11:59:00,
2013-10-02 08:00:00,66.7,65.9,30.15,SW,225,0.0,0.0,97,0.00,,,0.00,VWS V14.01,2013-10-02 12:00:00,
2013-10-02 08:04:00,67.3,66.4,30.15,SW,225,0.0,0.0,97,0.00,,,0.00,VWS V14.01,2013-10-02 12:04:00,
2013-10-02 08:09:00,67.5,66.6,30.18,SW,225,0.0,0.0,97,0.00,,,0.00,VWS V14.01,2013-10-02 12:09:00,
2013-10-02 08:14:00,67.5,66.6,30.18,SW,225,0.0,0.0,97,0.00,,,0.00,VWS V14.01,2013-10-02 12:14:00,
2013-10-02 08:19:00,67.6,66.8,30.18,SW,225,0.0,0.0,97,0.00,,,0.00,VWS V14.01,2013-10-02 12:19:00,
2013-10-02 08:24:00,67.6,66.8,30.15,SW,225,0.0,0.0,97,0.00,,,0.00,VWS V14.01,2013-10-02 12:24:00,
2013-10-02 08:29:00,67.6,66.8,30.15,SW,225,0.0,0.0,97,0.00,,,0.00,VWS V14.01,2013-10-02 12:29:00,
2013-10-02 08:34:00,67.8,66.9,30.15,SW,225,0.0,0.0,97,0.00,,,0.00,VWS V14.01,2013-10-02 12:34:00,
2013-10-02 08:39:00,68.0,67.1,30.18,SW,225,0.0,0.0,97,0.00,,,0.00,VWS V14.01,2013-10-02 12:39:00,
2013-10-02 08:44:00,68.2,67.3,30.18,SW,225,0.0,0.0,97,0.00,,,0.00,VWS V14.01,2013-10-02 12:44:00,
2013-10-02 08:49:00,68.4,67.5,30.18,SW,225,0.0,0.0,97,0.00,,,0.00,VWS V14.01,2013-10-02 12:49:00,
2013-10-02 08:54:00,68.4,67.5,30.18,SW,225,0.0,0.0,97,0.00,,,0.00,VWS V14.01,2013-10-02 12:54:00,
2013-10-02 08:59:00,68.5,67.7,30.18,SW,225,0.0,0.0,97,0.00,,,0.00,VWS V14.01,2013-10-02 12:59:00,
2013-10-02 09:00:00,68.5,67.7,30.18,SW,225,0.0,0.0,97,0.00,,BKN250,0.00,VWS V14.01,2013-10-02 13:00:00,
2013-10-02 09:04:00,68.7,67.5,30.18,SW,225,0.0,0.0,96,0.00,,BKN085,0.00,VWS V14.01,2013-10-02 13:04:00,
2013-10-02 09:09:00,69.1,67.9,30.18,SW,225,0.0,0.0,96,0.00,,BKN085,0.00,VWS V14.01,2013-10-02 13:09:00,
2013-10-02 09:14:00,69.3,68.1,30.18,SW,225,0.0,0.0,96,0.00,,BKN085,0.00,VWS V14.01,2013-10-02 13:14:00,
2013-10-02 09:19:00,69.4,67.9,30.18,SW,225,0.0,0.0,95,0.00,,BKN085,0.00,VWS V14.01,2013-10-02 13:19:00,
2013-10-02 09:24:00,69.4,67.9,30.18,SW,225,0.0,0.0,95,0.00,,BKN085,0.00,VWS V14.01,2013-10-02 13:24:00,
2013-10-02 09:29:00,69.8,68.0,30.18,SW,225,0.0,0.0,94,0.00,,BKN085,0.00,VWS V14.01,2013-10-02 13:29:00,
2013-10-02 09:34:00,70.0,68.2,30.18,SW,225,0.0,0.0,94,0.00,,BKN085,0.00,VWS V14.01,2013-10-02 13:34:00,
2013-10-02 09:39:00,70.2,68.4,30.18,SW,225,0.0,0.0,94,0.00,,BKN085,0.00,VWS V14.01,2013-10-02 13:39:00,
2013-10-02 09:44:00,70.3,68.5,30.18,SW,225,0.0,0.0,94,0.00,,BKN085,0.00,VWS V14.01,2013-10-02 13:44:00,
2013-10-02 09:49:00,70.5,68.4,30.18,SW,225,0.0,0.0,93,0.00,,BKN085,0.00,VWS V14.01,2013-10-02 13:49:00,
2013-10-02 09:54:00,70.7,68.6,30.18,SW,225,0.0,0.0,93,0.00,,BKN085,0.00,VWS V14.01,2013-10-02 13:54:00,
2013-10-02 09:59:00,70.9,68.4,30.18,SW,225,0.0,0.0,92,0.00,,BKN085,0.00,VWS V14.01,2013-10-02 13:59:00,
2013-10-02 10:00:00,70.9,68.4,30.18,SW,225,0.0,0.0,92,0.00,,BKN250,0.00,VWS V14.01,2013-10-02 14:00:00,
2013-10-02 10:04:00,71.1,68.6,30.18,SW,225,0.0,0.0,92,0.00,,BKN080,0.00,VWS V14.01,2013-10-02 14:04:00,
2013-10-02 10:09:00,71.2,68.8,30.18,SW,225,0.0,0.0,92,0.00,,BKN080,0.00,VWS V14.01,2013-10-02 14:09:00,
2013-10-02 10:14:00,71.6,68.5,30.18,SW,225,0.0,0.0,90,0.00,,BKN080,0.00,VWS V14.01,2013-10-02 14:14:00,
2013-10-02 10:19:00,72.1,69.1,30.18,SW,225,0.0,0.0,90,0.00,,BKN080,0.00,VWS V14.01,2013-10-02 14:19:00,
2013-10-02 10:24:00,72.7,69.6,30.18,SW,225,0.0,0.0,90,0.00,,BKN080,0.00,VWS V14.01,2013-10-02 14:24:00,
2013-10-02 10:29:00,72.9,69.1,30.18,SW,225,0.0,0.0,88,0.00,,BKN080,0.00,VWS V14.01,2013-10-02 14:29:00,
2013-10-02 10:34:00,73.0,68.6,30.18,SW,225,0.0,0.0,86,0.00,,BKN080,0.00,VWS V14.01,2013-10-02 14:34:00,
2013-10-02 10:39:00,73.4,68.6,30.21,SW,225,0.0,0.0,85,0.00,,BKN080,0.00,VWS V14.01,2013-10-02 14:39:00,
2013-10-02 10:44:00,73.4,68.3,30.21,SW,225,0.0,0.0,84,0.00,,BKN080,0.00,VWS V14.01,2013-10-02 14:44:00,
2013-10-02 10:49:00,73.8,68.6,30.21,SW,225,0.0,0.0,84,0.00,,BKN080,0.00,VWS V14.01,2013-10-02 14:49:00,
2013-10-02 10:54:00,74.3,68.8,30.18,SW,225,0.0,0.0,83,0.00,,BKN080,0.00,VWS V14.01,2013-10-02 14:54:00,
2013-10-02 10:59:00,74.7,68.8,30.18,SW,225,0.0,0.0,82,0.00,,BKN080,0.00,VWS V14.01,2013-10-02 14:59:00,
2013-10-02 11:00:00,74.7,68.8,30.18,SW,225,0.0,0.0,82,0.00,,BKN250,0.00,VWS V14.01,2013-10-02 15:00:00,
2013-10-02 11:04:00,75.0,68.8,30.18,SW,225,0.0,0.0,81,0.00,,OVC100,0.00,VWS V14.01,2013-10-02 15:04:00,
2013-10-02 11:09:00,75.4,68.8,30.18,SW,225,0.0,0.0,80,0.00,,OVC100,0.00,VWS V14.01,2013-10-02 15:09:00,
2013-10-02 11:14:00,75.9,68.6,30.18,SW,225,0.0,0.0,78,0.00,,OVC100,0.00,VWS V14.01,2013-10-02 15:14:00,
2013-10-02 11:19:00,76.3,68.2,30.18,SW,225,0.0,0.0,76,0.00,,-RA,0.00,VWS V14.01,2013-10-02 15:19:00,
2013-10-02 11:24:00,76.8,68.3,30.18,SW,225,0.0,0.0,75,0.00,,-RA,0.00,VWS V14.01,2013-10-02 15:24:00,
2013-10-02 11:29:00,77.0,68.1,30.18,SW,225,0.0,0.0,74,0.00,,-RA,0.00,VWS V14.01,2013-10-02 15:29:00,
2013-10-02 11:33:00,77.2,67.9,30.18,SW,225,0.0,0.0,73,0.00,,BKN045,0.00,VWS V14.01,2013-10-02 15:33:00,
2013-10-02 11:38:00,77.0,67.3,30.18,SW,225,0.0,0.0,72,0.00,,BKN045,0.00,VWS V14.01,2013-10-02 15:38:00,
2013-10-02 11:43:00,76.5,66.4,30.18,SW,225,0.0,0.0,71,0.00,,BKN045,0.00,VWS V14.01,2013-10-02 15:43:00,
2013-10-02 11:48:00,76.3,67.4,30.18,SW,225,0.0,0.0,74,0.00,,BKN055,0.00,VWS V14.01,2013-10-02 15:48:00,
2013-10-02 11:53:00,75.9,67.8,30.18,SW,225,0.0,0.0,76,0.00,,BKN055,0.00,VWS V14.01,2013-10-02 15:53:00,
2013-10-02 11:58:00,75.9,67.4,30.18,SW,225,0.0,0.0,75,0.00,,BKN055,0.00,VWS V14.01,2013-10-02 15:58:00,
2013-10-02 12:00:00,75.9,67.4,30.18,SW,225,0.0,0.0,75,0.00,,BKN250,0.00,VWS V14.01,2013-10-02 16:00:00,
2013-10-02 12:03:00,76.5,68.7,30.18,SW,225,0.0,0.0,77,0.00,,BKN042,0.00,VWS V14.01,2013-10-02 16:03:00,
2013-10-02 12:08:00,76.8,69.1,30.18,SW,225,0.0,0.0,77,0.00,,BKN042,0.00,VWS V14.01,2013-10-02 16:08:00,
2013-10-02 12:13:00,77.4,68.8,30.18,SW,225,0.0,0.0,75,0.00,,BKN042,0.00,VWS V14.01,2013-10-02 16:13:00,
2013-10-02 12:18:00,77.4,67.6,30.18,SW,225,0.0,0.0,72,0.00,,BKN042,0.00,VWS V14.01,2013-10-02 16:18:00,
2013-10-02 12:23:00,77.2,67.1,30.15,SW,225,0.0,0.0,71,0.00,,BKN042,0.00,VWS V14.01,2013-10-02 16:23:00,
2013-10-02 12:28:00,77.2,67.1,30.15,SW,225,0.0,0.0,71,0.00,,BKN042,0.00,VWS V14.01,2013-10-02 16:28:00,
2013-10-02 12:33:00,77.4,68.0,30.15,SW,225,0.0,0.0,73,0.00,,BKN031,0.00,VWS V14.01,2013-10-02 16:33:00,
2013-10-02 12:38:00,77.4,68.0,30.15,SW,225,0.0,0.0,73,0.00,,BKN031,0.00,VWS V14.01,2013-10-02 16:38:00,
2013-10-02 12:43:00,77.4,68.4,30.15,SW,225,0.0,0.0,74,0.00,,BKN031,0.00,VWS V14.01,2013-10-02 16:43:00,
2013-10-02 12:48:00,77.4,68.0,30.15,SW,225,0.0,0.0,73,0.00,,-RA,0.00,VWS V14.01,2013-10-02 16:48:00,
2013-10-02 12:53:00,77.5,68.6,30.15,SW,225,0.0,0.0,74,0.00,,-RA,0.00,VWS V14.01,2013-10-02 16:53:00,
2013-10-02 12:58:00,77.9,68.9,30.15,SW,225,0.0,0.0,74,0.00,,-RA,0.00,VWS V14.01,2013-10-02 16:58:00,
2013-10-02 13:00:00,77.9,68.9,30.15,SW,225,0.0,0.0,74,0.00,,BKN250,0.00,VWS V14.01,2013-10-02 17:00:00,
2013-10-02 13:03:00,78.3,68.9,30.15,SW,225,0.0,0.0,73,0.00,,-RA,0.00,VWS V14.01,2013-10-02 17:03:00,
2013-10-02 13:08:00,78.4,68.3,30.15,SW,225,0.0,0.0,71,0.00,,-RA,0.00,VWS V14.01,2013-10-02 17:08:00,
2013-10-02 13:13:00,78.8,67.4,30.15,WSW,248,2.0,2.9,68,0.00,,-RA,0.00,VWS V14.01,2013-10-02 17:13:00,
2013-10-02 13:18:00,79.3,66.6,30.15,ENE,68,0.9,3.4,65,0.00,,OVC020,0.00,VWS V14.01,2013-10-02 17:18:00,
2013-10-02 13:23:00,79.7,67.8,30.15,South,180,1.3,3.4,67,0.00,,OVC020,0.00,VWS V14.01,2013-10-02 17:23:00,
2013-10-02 13:28:00,79.9,67.1,30.15,South,180,0.9,3.4,65,0.00,,OVC020,0.00,VWS V14.01,2013-10-02 17:28:00,
2013-10-02 13:33:00,79.7,66.5,30.15,South,180,1.6,3.4,64,0.00,,OVC060,0.00,VWS V14.01,2013-10-02 17:33:00,
2013-10-02 13:38:00,79.7,66.9,30.15,South,180,0.0,3.4,65,0.00,,OVC060,0.00,VWS V14.01,2013-10-02 17:38:00,
2013-10-02 13:43:00,79.5,66.3,30.15,South,180,0.0,3.4,64,0.00,,OVC060,0.00,VWS V14.01,2013-10-02 17:43:00,
2013-10-02 13:48:00,79.3,66.1,30.15,SSW,202,1.3,3.4,64,0.00,, +RA,0.00,VWS V14.01,2013-10-02 17:48:00,
2013-10-02 13:53:00,79.7,66.5,30.15,SSW,202,3.1,3.4,64,0.00,, +RA,0.00,VWS V14.01,2013-10-02 17:53:00,
2013-10-02 13:58:00,80.4,67.1,30.15,SSW,202,2.0,3.4,64,0.00,, +RA,0.00,VWS V14.01,2013-10-02 17:58:00,
2013-10-02 14:00:00,80.8,67.5,30.15,SSW,202,1.6,3.4,64,0.00,,BKN250,0.00,VWS V14.01,2013-10-02 18:00:00,
2013-10-02 14:03:00,81.3,67.5,30.15,South,180,3.6,3.6,63,0.00,,-RA,0.00,VWS V14.01,2013-10-02 18:03:00,
2013-10-02 14:08:00,81.7,66.9,30.12,SSW,202,1.6,3.6,61,0.00,,-RA,0.00,VWS V14.01,2013-10-02 18:08:00,
2013-10-02 14:13:00,82.0,66.8,30.12,SSW,202,0.0,3.6,60,0.00,,-RA,0.00,VWS V14.01,2013-10-02 18:13:00,
2013-10-02 14:18:00,82.0,65.3,30.12,SSW,202,1.1,3.6,57,0.00,,-RA,0.00,VWS V14.01,2013-10-02 18:18:00,
2013-10-02 14:23:00,81.9,64.1,30.12,SSW,202,1.3,3.6,55,0.00,,-RA,0.00,VWS V14.01,2013-10-02 18:23:00,
2013-10-02 14:28:00,81.5,64.3,30.12,South,180,2.0,3.6,56,0.00,,-RA,0.00,VWS V14.01,2013-10-02 18:28:00,
2013-10-02 14:33:00,81.3,64.1,30.12,South,180,1.3,3.6,56,0.00,,-RA,0.00,VWS V14.01,2013-10-02 18:33:00,
2013-10-02 14:38:00,81.1,64.0,30.12,SSW,202,2.7,3.6,56,0.00,,-RA,0.00,VWS V14.01,2013-10-02 18:38:00,
2013-10-02 14:43:00,81.0,64.3,30.12,SSW,202,3.1,3.8,57,0.00,,-RA,0.00,VWS V14.01,2013-10-02 18:43:00,
2013-10-02 14:48:00,81.0,63.8,30.12,SSW,202,3.6,5.4,56,0.00,,OVC019,0.00,VWS V14.01,2013-10-02 18:48:00,
2013-10-02 14:53:00,80.4,63.8,30.09,SSW,202,3.4,5.4,57,0.00,,OVC019,0.00,VWS V14.01,2013-10-02 18:53:00,
2013-10-02 14:58:00,79.9,63.3,30.09,SSW,202,2.5,5.4,57,0.00,,OVC019,0.00,VWS V14.01,2013-10-02 18:58:00,
2013-10-02 15:00:00,79.9,63.3,30.09,South,180,3.4,5.4,57,0.00,,BKN250,0.00,VWS V14.01,2013-10-02 19:00:00,
2013-10-02 15:03:00,79.5,64.0,30.09,SW,225,3.1,4.0,59,0.00,,OVC021,0.00,VWS V14.01,2013-10-02 19:03:00,
2013-10-02 15:08:00,78.8,63.8,30.12,SSE,158,2.5,4.0,60,0.00,,OVC021,0.00,VWS V14.01,2013-10-02 19:08:00,
2013-10-02 15:12:00,78.3,65.1,30.12,SSW,202,0.0,4.0,64,0.00,,OVC021,0.00,VWS V14.01,2013-10-02 19:12:00,
2013-10-02 15:17:00,77.7,63.7,30.12,South,180,1.3,4.0,62,0.00,,-RA,0.00,VWS V14.01,2013-10-02 19:17:00,
2013-10-02 15:22:00,77.4,65.1,30.09,SSW,202,0.0,4.0,66,0.00,,-RA,0.00,VWS V14.01,2013-10-02 19:22:00,
2013-10-02 15:27:00,77.2,65.8,30.09,SSW,202,2.0,4.0,68,0.00,,-RA,0.00,VWS V14.01,2013-10-02 19:27:00,
2013-10-02 15:32:00,76.8,65.9,30.09,South,180,2.9,4.0,69,0.00,,BKN080,0.00,VWS V14.01,2013-10-02 19:32:00,
2013-10-02 15:37:00,76.8,65.9,30.09,SSW,202,2.5,4.3,69,0.00,,BKN080,0.00,VWS V14.01,2013-10-02 19:37:00,
2013-10-02 15:42:00,77.2,66.2,30.09,SW,225,1.3,4.3,69,0.00,,BKN080,0.00,VWS V14.01,2013-10-02 19:42:00,
2013-10-02 15:47:00,77.5,66.6,30.09,SW,225,2.0,4.3,69,0.00,,-RA,0.00,VWS V14.01,2013-10-02 19:47:00,
2013-10-02 15:52:00,77.9,66.5,30.09,SW,225,2.2,4.3,68,0.00,,-RA,0.00,VWS V14.01,2013-10-02 19:52:00,
2013-10-02 15:57:00,78.1,66.2,30.09,SSW,202,4.0,4.3,67,0.00,,-RA,0.00,VWS V14.01,2013-10-02 19:57:00,
2013-10-02 16:00:00,78.1,65.8,30.09,SSW,202,3.6,4.3,66,0.00,,BKN250,0.00,VWS V14.01,2013-10-02 20:00:00,
2013-10-02 16:02:00,77.9,65.6,30.09,South,180,2.7,5.6,66,0.00,,BKN090,0.00,VWS V14.01,2013-10-02 20:02:00,
2013-10-02 16:07:00,77.7,65.0,30.12,South,180,3.8,5.6,65,0.00,,BKN090,0.00,VWS V14.01,2013-10-02 20:07:00,
2013-10-02 16:12:00,77.4,64.7,30.12,SSW,202,2.2,5.6,65,0.00,,BKN090,0.00,VWS V14.01,2013-10-02 20:12:00,
2013-10-02 16:17:00,77.0,64.3,30.12,SW,225,2.0,5.6,65,0.00,,BKN090,0.00,VWS V14.01,2013-10-02 20:17:00,
2013-10-02 16:22:00,76.8,64.6,30.09,SW,225,2.5,5.6,66,0.00,,BKN090,0.00,VWS V14.01,2013-10-02 20:22:00,
2013-10-02 16:27:00,76.6,64.9,30.09,SSW,202,2.2,5.6,67,0.00,,BKN090,0.00,VWS V14.01,2013-10-02 20:27:00,
2013-10-02 16:32:00,76.3,65.4,30.09,SW,225,2.0,5.6,69,0.00,,BKN090,0.00,VWS V14.01,2013-10-02 20:32:00,
2013-10-02 16:37:00,76.1,65.6,30.09,SW,225,2.7,5.6,70,0.00,,BKN090,0.00,VWS V14.01,2013-10-02 20:37:00,
2013-10-02 16:42:00,75.7,65.3,30.09,SW,225,0.0,5.6,70,0.00,,BKN090,0.00,VWS V14.01,2013-10-02 20:42:00,
2013-10-02 16:47:00,75.4,66.1,30.09,SSW,202,0.0,5.6,73,0.00,,BKN090,0.00,VWS V14.01,2013-10-02 20:47:00,
2013-10-02 16:52:00,75.2,66.3,30.09,SSW,202,0.0,5.6,74,0.00,,BKN090,0.00,VWS V14.01,2013-10-02 20:52:00,
2013-10-02 16:57:00,75.0,66.9,30.09,WSW,248,0.0,5.6,76,0.00,,BKN090,0.00,VWS V14.01,2013-10-02 20:57:00,
2013-10-02 17:00:00,75.0,66.9,30.09,SSW,202,0.0,5.6,76,0.00,,BKN250,0.00,VWS V14.01,2013-10-02 21:00:00,
2013-10-02 17:02:00,75.0,67.3,30.09,SSW,202,0.0,0.0,77,0.00,,SCT130,0.00,VWS V14.01,2013-10-02 21:02:00,
2013-10-02 17:07:00,75.2,67.5,30.09,SSW,202,0.0,0.0,77,0.00,,SCT130,0.00,VWS V14.01,2013-10-02 21:07:00,
2013-10-02 17:12:00,75.2,67.5,30.09,SSW,202,0.0,0.0,77,0.00,,SCT130,0.00,VWS V14.01,2013-10-02 21:12:00,
2013-10-02 17:17:00,75.4,68.1,30.09,SSW,202,0.0,0.0,78,0.00,,FEW130,0.00,VWS V14.01,2013-10-02 21:17:00,
2013-10-02 17:22:00,75.4,68.4,30.09,SSW,202,0.0,0.0,79,0.00,,FEW130,0.00,VWS V14.01,2013-10-02 21:22:00,
2013-10-02 17:27:00,75.4,68.1,30.09,South,180,0.0,3.1,78,0.00,,FEW130,0.00,VWS V14.01,2013-10-02 21:27:00,
2013-10-02 17:32:00,75.6,68.6,30.09,SSW,202,0.0,3.1,79,0.00,,FEW130,0.00,VWS V14.01,2013-10-02 21:32:00,
2013-10-02 17:37:00,75.6,68.6,30.09,SSW,202,0.0,3.1,79,0.00,,FEW130,0.00,VWS V14.01,2013-10-02 21:37:00,
2013-10-02 17:42:00,75.6,68.6,30.09,SSW,202,0.0,3.1,79,0.00,,FEW130,0.00,VWS V14.01,2013-10-02 21:42:00,
2013-10-02 17:47:00,75.7,69.1,30.09,South,180,0.0,3.1,80,0.00,,FEW130,0.00,VWS V14.01,2013-10-02 21:47:00,
2013-10-02 17:52:00,75.7,68.8,30.09,SSW,202,0.0,3.1,79,0.00,,FEW130,0.00,VWS V14.01,2013-10-02 21:52:00,
2013-10-02 17:57:00,75.7,68.8,30.09,SSW,202,0.0,3.1,79,0.00,,FEW130,0.00,VWS V14.01,2013-10-02 21:57:00,
2013-10-02 18:00:00,75.7,68.8,30.09,SSW,202,0.0,3.1,79,0.00,,BKN250,0.00,VWS V14.01,2013-10-02 22:00:00,
2013-10-02 18:02:00,75.7,68.8,30.09,SSW,202,0.0,0.0,79,0.00,,FEW130,0.00,VWS V14.01,2013-10-02 22:02:00,
2013-10-02 18:07:00,75.7,68.8,30.09,SSW,202,0.0,0.0,79,0.00,,FEW130,0.00,VWS V14.01,2013-10-02 22:07:00,
2013-10-02 18:12:00,75.7,69.1,30.09,South,180,0.0,0.0,80,0.00,,FEW130,0.00,VWS V14.01,2013-10-02 22:12:00,
2013-10-02 18:17:00,75.6,68.6,30.09,SW,225,0.0,0.0,79,0.00,,BKN130,0.00,VWS V14.01,2013-10-02 22:17:00,
2013-10-02 18:22:00,75.6,69.0,30.09,SW,225,0.0,0.0,80,0.00,,BKN130,0.00,VWS V14.01,2013-10-02 22:22:00,
2013-10-02 18:33:00,75.4,68.8,30.09,South,180,0.0,0.0,80,0.00,,BKN130,0.00,VWS V14.01,2013-10-02 22:33:00,
2013-10-02 18:38:00,75.2,68.6,30.09,SW,225,0.0,0.0,80,0.00,,BKN130,0.00,VWS V14.01,2013-10-02 22:38:00,
2013-10-02 18:43:00,75.2,69.0,30.09,SSW,202,0.0,0.0,81,0.00,,BKN130,0.00,VWS V14.01,2013-10-02 22:43:00,
2013-10-02 18:48:00,75.2,69.0,30.09,South,180,0.0,0.0,81,0.00,,BKN130,0.00,VWS V14.01,2013-10-02 22:48:00,
2013-10-02 18:53:00,75.0,69.2,30.09,South,180,0.0,0.0,82,0.00,,BKN130,0.00,VWS V14.01,2013-10-02 22:53:00,
2013-10-02 18:58:00,75.0,69.2,30.09,SSW,202,0.0,0.0,82,0.00,,BKN130,0.00,VWS V14.01,2013-10-02 22:58:00,
2013-10-02 19:00:00,74.8,69.0,30.09,SSW,202,0.0,0.0,82,0.00,,BKN250,0.00,VWS V14.01,2013-10-02 23:00:00,
2013-10-02 19:03:00,74.8,69.0,30.09,SSW,202,0.0,0.0,82,0.00,,BKN130,0.00,VWS V14.01,2013-10-02 23:03:00,
2013-10-02 19:08:00,74.8,69.0,30.09,SSW,202,0.0,0.0,82,0.00,,BKN130,0.00,VWS V14.01,2013-10-02 23:08:00,
2013-10-02 19:13:00,74.7,68.8,30.09,South,180,0.0,0.0,82,0.00,,BKN130,0.00,VWS V14.01,2013-10-02 23:13:00,
2013-10-02 19:18:00,74.5,68.6,30.09,SSE,158,0.0,0.0,82,0.00,,BKN130,0.00,VWS V14.01,2013-10-02 23:18:00,
2013-10-02 19:23:00,74.3,68.8,30.12,South,180,0.0,0.0,83,0.00,,BKN130,0.00,VWS V14.01,2013-10-02 23:23:00,
2013-10-02 19:28:00,74.3,68.4,30.12,SSW,202,0.0,0.0,82,0.00,,BKN130,0.00,VWS V14.01,2013-10-02 23:28:00,
2013-10-02 19:33:00,74.1,68.6,30.12,SSW,202,0.0,0.0,83,0.00,,BKN130,0.00,VWS V14.01,2013-10-02 23:33:00,
2013-10-02 19:38:00,74.1,68.6,30.12,SSW,202,0.0,0.0,83,0.00,,BKN130,0.00,VWS V14.01,2013-10-02 23:38:00,
2013-10-02 19:43:00,73.9,68.5,30.12,South,180,0.0,0.0,83,0.00,,BKN130,0.00,VWS V14.01,2013-10-02 23:43:00,
2013-10-02 19:48:00,73.9,68.5,30.12,South,180,0.0,0.0,83,0.00,,BKN130,0.00,VWS V14.01,2013-10-02 23:48:00,
2013-10-02 19:49:00,73.8,68.3,30.12,South,180,0.0,0.0,83,0.00,,BKN130,0.00,VWS V14.01,2013-10-02 23:49:00,
2013-10-02 19:54:00,73.6,67.8,30.09,South,180,0.0,0.0,82,0.00,,BKN130,0.00,VWS V14.01,2013-10-02 23:54:00,
2013-10-02 19:59:00,73.6,67.8,30.09,South,180,0.0,0.0,82,0.00,,BKN130,0.00,VWS V14.01,2013-10-02 23:59:00,
2013-10-02 20:00:00,73.6,67.8,30.09,South,180,0.0,0.0,82,0.00,,BKN250,0.00,VWS V14.01,2013-10-03 00:00:00,
2013-10-02 20:04:00,73.4,67.6,30.09,South,180,0.0,0.0,82,0.00,,BKN130,0.00,VWS V14.01,2013-10-03 00:04:00,
2013-10-02 20:09:00,73.2,67.4,30.12,South,180,0.0,0.0,82,0.00,,BKN130,0.00,VWS V14.01,2013-10-03 00:09:00,
2013-10-02 20:14:00,73.2,67.4,30.12,South,180,0.0,0.0,82,0.00,,BKN130,0.00,VWS V14.01,2013-10-03 00:14:00,
2013-10-02 20:19:00,73.2,67.8,30.12,South,180,0.0,0.0,83,0.00,,OVC100,0.00,VWS V14.01,2013-10-03 00:19:00,
2013-10-02 20:24:00,73.0,67.6,30.12,South,180,0.0,0.0,83,0.00,,OVC100,0.00,VWS V14.01,2013-10-03 00:24:00,
2013-10-02 20:29:00,73.0,67.6,30.12,South,180,0.0,0.0,83,0.00,,OVC100,0.00,VWS V14.01,2013-10-03 00:29:00,
2013-10-02 20:34:00,73.0,67.9,30.12,South,180,0.0,0.0,84,0.00,,OVC100,0.00,VWS V14.01,2013-10-03 00:34:00,
2013-10-02 20:39:00,72.9,68.1,30.12,South,180,0.0,0.0,85,0.00,,OVC100,0.00,VWS V14.01,2013-10-03 00:39:00,
2013-10-02 20:44:00,72.9,68.4,30.12,South,180,0.0,0.0,86,0.00,,OVC100,0.00,VWS V14.01,2013-10-03 00:44:00,
2013-10-02 20:49:00,72.9,68.8,30.12,South,180,0.0,0.0,87,0.00,,OVC100,0.00,VWS V14.01,2013-10-03 00:49:00,
2013-10-02 20:54:00,72.9,69.1,30.12,South,180,0.0,0.0,88,0.00,,OVC100,0.00,VWS V14.01,2013-10-03 00:54:00,
2013-10-02 20:59:00,72.9,69.1,30.12,South,180,0.0,0.0,88,0.00,,OVC100,0.00,VWS V14.01,2013-10-03 00:59:00,
2013-10-02 21:00:00,72.9,69.1,30.12,South,180,0.0,0.0,88,0.00,,BKN250,0.00,VWS V14.01,2013-10-03 01:00:00,
2013-10-02 21:04:00,72.9,69.4,30.12,South,180,0.0,0.0,89,0.00,,OVC100,0.00,VWS V14.01,2013-10-03 01:04:00,
2013-10-02 21:09:00,72.9,69.8,30.12,South,180,0.0,0.0,90,0.00,,OVC100,0.00,VWS V14.01,2013-10-03 01:09:00,
2013-10-02 21:14:00,72.9,69.8,30.12,South,180,0.0,0.0,90,0.00,,OVC100,0.00,VWS V14.01,2013-10-03 01:14:00,
2013-10-02 21:19:00,72.9,69.8,30.12,South,180,0.0,0.0,90,0.00,,BKN100,0.00,VWS V14.01,2013-10-03 01:19:00,
2013-10-02 21:24:00,72.9,70.1,30.15,South,180,0.0,0.0,91,0.00,,BKN100,0.00,VWS V14.01,2013-10-03 01:24:00,
2013-10-02 21:29:00,72.9,70.1,30.15,South,180,0.0,0.0,91,0.00,,BKN100,0.00,VWS V14.01,2013-10-03 01:29:00,
2013-10-02 21:34:00,72.9,70.1,30.15,SSW,202,0.0,0.0,91,0.00,,BKN100,0.00,VWS V14.01,2013-10-03 01:34:00,
2013-10-02 21:39:00,72.9,70.1,30.15,SSW,202,0.0,0.0,91,0.00,,BKN100,0.00,VWS V14.01,2013-10-03 01:39:00,
2013-10-02 21:44:00,72.7,70.2,30.15,SSW,202,0.0,0.0,92,0.00,,BKN100,0.00,VWS V14.01,2013-10-03 01:44:00,
2013-10-02 21:49:00,72.7,70.2,30.15,SSW,202,0.0,0.0,92,0.00,,BKN100,0.00,VWS V14.01,2013-10-03 01:49:00,
2013-10-02 21:54:00,72.7,70.2,30.15,SSW,202,0.0,0.0,92,0.00,,BKN100,0.00,VWS V14.01,2013-10-03 01:54:00,
2013-10-02 21:58:00,72.7,70.2,30.15,SSW,202,0.0,0.0,92,0.00,,BKN100,0.00,VWS V14.01,2013-10-03 01:58:00,
2013-10-02 22:00:00,72.7,70.2,30.15,SSW,202,0.0,0.0,92,0.00,,BKN250,0.00,VWS V14.01,2013-10-03 02:00:00,
2013-10-02 22:03:00,72.7,70.2,30.15,SW,225,0.0,0.0,92,0.00,,BKN100,0.00,VWS V14.01,2013-10-03 02:03:00,
2013-10-02 22:05:00,72.7,70.2,30.15,SW,225,0.0,0.0,92,0.00,,BKN100,0.00,VWS V14.01,2013-10-03 02:05:00,
2013-10-02 22:10:00,72.7,70.2,30.18,WSW,248,0.0,0.0,92,0.00,,BKN100,0.00,VWS V14.01,2013-10-03 02:10:00,
2013-10-02 22:15:00,72.7,70.2,30.18,SSW,202,0.0,0.0,92,0.00,,BKN100,0.00,VWS V14.01,2013-10-03 02:15:00,
2013-10-02 22:20:00,72.7,70.2,30.18,SSW,202,0.0,0.0,92,0.00,,OVC110,0.00,VWS V14.01,2013-10-03 02:20:00,
2013-10-02 22:25:00,72.5,70.1,30.15,SSW,202,0.0,0.0,92,0.00,,OVC110,0.00,VWS V14.01,2013-10-03 02:25:00,
2013-10-02 22:30:00,72.5,70.1,30.15,SSW,202,0.0,0.0,92,0.00,,OVC110,0.00,VWS V14.01,2013-10-03 02:30:00,
2013-10-02 22:35:00,72.5,70.1,30.15,SSW,202,0.0,0.0,92,0.00,,OVC110,0.00,VWS V14.01,2013-10-03 02:35:00,
2013-10-02 22:40:00,72.5,70.1,30.15,SSW,202,0.0,0.0,92,0.00,,OVC110,0.00,VWS V14.01,2013-10-03 02:40:00,
2013-10-02 22:45:00,72.5,70.1,30.15,SSW,202,0.0,0.0,92,0.00,,OVC110,0.00,VWS V14.01,2013-10-03 02:45:00,
2013-10-02 22:50:00,72.3,69.9,30.15,SSW,202,0.0,0.0,92,0.00,,OVC110,0.00,VWS V14.01,2013-10-03 02:50:00,
2013-10-02 22:55:00,72.3,69.9,30.15,SSW,202,0.0,0.0,92,0.00,,OVC110,0.00,VWS V14.01,2013-10-03 02:55:00,
2013-10-02 23:00:00,72.3,69.9,30.15,SSW,202,0.0,0.0,92,0.00,,OVC110,0.00,VWS V14.01,2013-10-03 03:00:00,
2013-10-02 23:05:00,72.1,70.0,30.15,SSW,202,0.0,0.0,93,0.00,,OVC110,0.00,VWS V14.01,2013-10-03 03:05:00,
2013-10-02 23:10:00,72.1,70.0,30.15,SSW,202,0.0,0.0,93,0.00,,OVC110,0.00,VWS V14.01,2013-10-03 03:10:00,
2013-10-02 23:15:00,72.1,70.0,30.15,SSW,202,0.0,0.0,93,0.00,,OVC110,0.00,VWS V14.01,2013-10-03 03:15:00,
2013-10-02 23:20:00,72.0,70.1,30.15,SSW,202,0.0,0.0,94,0.00,,OVC110,0.00,VWS V14.01,2013-10-03 03:20:00,
2013-10-02 23:25:00,72.0,70.1,30.15,SSW,202,0.0,0.0,94,0.00,,OVC110,0.00,VWS V14.01,2013-10-03 03:25:00,
2013-10-02 23:30:00,71.8,70.0,30.15,SSW,202,0.0,0.0,94,0.00,,OVC110,0.00,VWS V14.01,2013-10-03 03:30:00,
2013-10-02 23:35:00,71.8,70.3,30.15,SSW,202,0.0,0.0,95,0.00,,OVC110,0.00,VWS V14.01,2013-10-03 03:35:00,
2013-10-02 23:40:00,71.6,70.1,30.15,SSW,202,0.0,0.0,95,0.00,,OVC110,0.00,VWS V14.01,2013-10-03 03:40:00,
2013-10-02 23:45:00,71.6,70.1,30.15,SSW,202,0.0,0.0,95,0.00,,OVC110,0.00,VWS V14.01,2013-10-03 03:45:00,
2013-10-02 23:50:00,71.6,70.4,30.15,SSW,202,0.0,0.0,96,0.00,,OVC110,0.00,VWS V14.01,2013-10-03 03:50:00,
2013-10-02 23:55:00,71.4,70.5,30.15,SSW,202,0.0,0.0,97,0.00,,OVC110,0.00,VWS V14.01,2013-10-03 03:55:00,